Wind_Speed
22 25 24 24 24 24 24 24 24 22 23 23 21 21 25 26 29 29 26 24 24 26 29 30 28 27 26 25 27 28 30 33 35 34 34 33 33 33
24 27 26 28 28 27 27 27 25 26 25 26 27 27 29 24 27 22 21 25 28 27 31 36 33 33 31 30 29 30 32 33 35 35 35 34 35 35
27 28 29 30 31 31 32 31 32 32 30 29 30 30 29 28 25 29 31 33 32 30 31 28 37 36 34 33 33 32 32 34 36 37 37 36 35 36
30 29 31 32 33 35 35 34 35 36 34 32 29 30 30 30 30 27 30 31 40 30 32 31 28 46 45 36 36 35 36 35 36 38 38 37 38 38
32 32 32 32 34 33 35 36 36 36 37 35 34 33 32 33 29 32 36 38 38 40 28 26 25 29 28 28 32 39 41 41 39 40 39 38 38 39
30 30 33 34 34 34 34 37 37 37 38 38 37 36 35 36 36 37 34 36 32 38 42 38 37 32 32 34 35 37 36 34 41 46 42 40 39 39
32 31 32 31 32 33 33 35 37 38 39 40 41 41 41 38 40 39 38 33 36 38 45 37 35 34 31 37 36 40 40 36 33 43 43 43 42 41
30 31 31 31 34 35 36 36 38 39 41 42 42 43 44 43 44 43 43 39 37 38 44 36 35 32 39 34 37 38 41 41 41 40 39 44 45 45
32 33 37 35 37 40 41 42 43 44 46 47 48 48 48 49 47 46 47 46 43 41 42 37 40 39 39 38 41 38 38 37 42 45 43 41 42 40
37 40 43 45 43 45 46 48 49 51 52 52 53 52 52 53 52 52 50 50 48 47 48 43 44 43 44 43 42 42 41 42 41 40 47 47 45 44
41 44 47 49 49 51 53 55 56 57 58 58 57 57 58 57 56 55 55 54 53 52 51 50 48 46 47 46 45 45 45 43 42 42 41 48 49 47
46 48 48 51 57 59 59 59 59 59 58 58 59 58 56 57 60 60 61 59 57 55 57 56 52 51 49 49 51 49 47 46 44 42 44 40 47 51
47 51 55 58 57 57 52 47 45 44 43 46 51 55 56 55 58 59 60 61 62 61 60 61 58 55 55 51 50 52 50 48 47 45 45 45 44 41
50 55 58 56 53 43 39 37 37 35 35 34 34 38 42 46 52 58 62 64 63 63 64 65 63 61 59 57 54 52 50 50 49 47 47 46 45 47
55 56 52 47 37 37 37 36 34 33 34 34 33 33 33 33 36 41 48 57 64 65 65 67 65 64 65 62 60 58 55 52 50 48 49 49 48 48
51 46 40 34 34 34 36 38 37 35 33 33 33 33 33 32 33 34 34 39 45 52 61 65 65 66 66 65 64 61 62 59 56 53 51 51 50 49
47 42 36 34 34 35 36 31 28 28 30 31 31 30 29 28 31 35 35 35 34 39 44 51 59 61 64 65 65 64 61 60 61 58 56 52 51 50
41 34 33 33 34 31 26 26 29 29 31 34 35 34 33 33 33 33 31 34 35 34 35 40 45 52 55 58 61 62 61 59 59 59 58 56 52 51
31 31 32 33 28 26 28 26 28 35 41 42 41 42 42 43 42 39 38 34 33 33 32 32 36 40 45 49 52 55 58 60 59 59 59 58 55 51
31 31 31 26 24 26 25 30 35 39 41 42 41 38 36 36 40 42 42 40 35 32 30 30 29 34 37 42 47 48 49 53 56 57 59 59 57 54
32 31 27 27 25 25 31 35 38 38 37 36 36 38 39 40 42 38 39 42 37 32 28 28 28 26 29 35 39 43 45 46 49 53 54 58 58 55
33 27 27 24 25 30 34 36 36 37 35 37 39 39 37 37 40 36 34 37 37 34 29 26 24 23 24 24 29 37 41 44 44 45 47 50 55 56
28 23 27 24 28 33 34 34 35 34 35 37 36 34 36 34 33 30 30 31 34 34 31 29 28 23 21 22 23 28 34 36 39 40 42 44 46 52
Wind_Direction
303 300 303 301 300 299 299 298 298 293 291 294 291 276 272 268 286 251 236 234 244 242 235 237 232 238 234 229 230 233 231 228 227 227 228 228 228 227
296 294 293 293 291 289 287 288 287 283 281 284 279 271 286 285 276 243 239 236 239 242 241 245 240 238 243 239 229 231 234 234 233 234 234 231 233 232
295 295 294 291 290 289 287 284 283 283 284 278 273 274 283 288 281 268 268 260 244 245 248 248 237 241 241 240 240 233 231 234 236 236 239 239 236 234
297 295 291 289 287 285 286 284 284 284 282 282 278 274 271 278 268 264 276 278 253 236 246 254 254 231 236 241 244 245 242 236 236 238 238 240 240 235
295 293 292 289 285 283 282 281 281 281 282 281 279 276 270 265 265 265 263 270 273 245 242 251 262 260 249 248 241 247 247 250 241 237 238 238 238 238
297 295 295 293 289 285 282 279 278 278 278 279 278 276 272 269 267 267 271 268 263 260 244 243 243 244 248 252 252 254 247 253 245 239 235 236 239 240
304 304 300 297 293 289 286 283 281 278 275 275 275 274 272 272 269 269 271 266 269 262 265 260 258 244 248 254 252 251 253 251 248 237 239 240 237 237
306 306 303 303 298 293 290 286 281 278 277 276 274 272 272 271 269 268 268 266 263 259 262 257 258 262 251 250 252 250 249 247 247 244 243 244 243 241
302 300 299 297 294 293 290 288 286 284 281 277 275 273 272 271 268 266 266 267 267 261 261 256 254 248 249 251 254 251 248 248 249 246 244 242 246 250
300 299 299 299 298 293 290 288 285 283 280 277 276 274 272 270 268 266 263 262 261 262 263 259 254 252 254 249 251 250 248 248 248 250 246 245 243 241
303 301 300 298 296 293 293 291 288 284 280 276 273 271 269 268 267 267 266 263 262 260 257 257 258 255 252 253 254 249 250 248 249 248 247 246 247 246
302 302 300 302 300 298 297 296 291 286 281 274 271 269 266 266 267 265 263 262 262 262 263 259 254 256 253 251 251 252 250 249 247 246 246 246 244 245
304 305 303 306 305 302 298 296 295 293 290 284 275 270 266 264 264 263 261 263 263 260 258 259 258 255 255 253 250 250 249 249 248 246 245 246 247 248
307 307 309 308 304 300 300 300 300 301 300 297 289 281 276 271 265 263 262 261 257 257 258 258 256 255 254 253 253 253 251 249 247 246 246 245 245 247
311 311 309 305 304 303 302 302 301 300 298 296 295 291 286 282 276 270 264 260 259 257 254 253 254 254 254 252 250 251 252 252 250 246 245 244 244 243
311 309 303 303 303 301 303 304 302 301 301 299 296 293 290 287 283 281 279 271 264 259 256 254 252 251 249 250 250 247 249 250 251 250 246 244 244 244
315 310 306 307 305 306 306 306 306 307 306 304 301 297 295 291 286 281 280 278 278 269 262 257 252 249 249 247 246 247 245 246 248 248 247 244 242 241
311 307 307 309 310 308 305 307 310 313 312 310 305 300 294 293 292 287 283 277 275 277 273 264 256 250 247 246 245 244 243 242 242 245 245 244 241 239
314 316 315 312 305 304 313 314 313 314 314 309 304 299 296 291 285 282 280 277 277 271 272 272 261 253 247 244 245 242 241 240 238 239 241 243 242 239
321 319 319 316 311 312 314 314 312 313 311 309 306 305 302 301 288 278 273 270 268 270 265 267 267 258 250 244 242 244 241 240 239 238 236 239 241 240
326 324 320 319 318 319 318 319 320 318 316 316 316 311 305 305 305 292 271 261 258 259 262 259 262 264 259 251 245 242 241 239 239 237 236 235 236 238
326 321 321 319 321 323 322 321 320 322 322 323 322 318 312 307 307 295 276 259 248 246 251 250 257 265 264 261 251 243 241 240 238 237 235 234 233 233
326 323 327 322 322 326 326 326 327 328 327 326 326 326 325 319 311 303 280 259 240 237 241 246 255 262 264 258 252 243 238 235 234 237 232 230 231 231
Height
5848 5846 5842 5841 5839 5836 5834 5834 5832 5831 5830 5829 5830 5829 5829 5829 5827 5824 5826 5830 5833 5835 5837 5839 5841 5845 5847 5849 5851 5854 5857 5859 5862 5866 5869 5873 5877 5881
5842 5841 5837 5836 5834 5832 5831 5828 5827 5825 5824 5824 5823 5823 5822 5822 5823 5821 5821 5824 5825 5828 5831 5832 5834 5836 5840 5842 5844 5847 5850 5853 5856 5860 5863 5866 5870 5875
5837 5834 5831 5828 5827 5826 5823 5821 5820 5819 5819 5817 5816 5816 5816 5816 5815 5816 5816 5816 5818 5821 5823 5823 5825 5828 5831 5834 5837 5839 5843 5847 5849 5853 5856 5860 5863 5868
5830 5826 5824 5821 5818 5816 5815 5814 5812 5810 5811 5810 5809 5809 5809 5808 5807 5808 5809 5809 5809 5811 5812 5814 5816 5818 5821 5825 5828 5832 5834 5837 5841 5845 5849 5852 5856 5859
5822 5818 5815 5813 5810 5808 5807 5805 5803 5802 5801 5801 5800 5800 5801 5801 5800 5800 5800 5800 5801 5802 5805 5806 5807 5809 5810 5814 5818 5823 5826 5829 5832 5835 5839 5843 5847 5851
5815 5811 5807 5804 5801 5798 5798 5796 5795 5794 5793 5791 5791 5791 5791 5790 5791 5791 5791 5791 5792 5792 5794 5796 5799 5802 5805 5807 5810 5813 5816 5819 5821 5825 5829 5833 5837 5841
5809 5805 5801 5799 5796 5792 5790 5788 5786 5784 5783 5782 5781 5780 5779 5781 5780 5780 5781 5782 5782 5782 5782 5785 5788 5790 5796 5797 5800 5802 5806 5809 5811 5815 5820 5824 5827 5831
5800 5797 5795 5793 5788 5785 5782 5779 5777 5775 5772 5770 5769 5768 5767 5768 5768 5769 5769 5771 5773 5771 5773 5778 5777 5781 5784 5787 5789 5792 5795 5798 5802 5805 5808 5813 5817 5820
5793 5789 5784 5785 5782 5777 5773 5769 5765 5763 5760 5758 5756 5754 5753 5752 5753 5754 5755 5757 5759 5761 5760 5765 5766 5769 5773 5775 5779 5782 5784 5786 5789 5793 5797 5801 5806 5810
5783 5779 5775 5770 5768 5764 5760 5756 5752 5749 5747 5744 5741 5738 5737 5736 5736 5738 5740 5741 5744 5746 5745 5750 5752 5756 5758 5762 5767 5771 5773 5774 5777 5781 5785 5789 5793 5797
5773 5768 5763 5759 5754 5750 5744 5739 5735 5730 5728 5725 5723 5721 5720 5720 5719 5720 5721 5724 5727 5729 5731 5734 5736 5741 5744 5748 5751 5756 5759 5762 5765 5769 5772 5775 5779 5784
5759 5755 5751 5746 5737 5731 5725 5719 5713 5708 5705 5701 5700 5700 5701 5701 5699 5701 5703 5706 5709 5712 5711 5716 5722 5724 5728 5733 5736 5739 5745 5748 5753 5757 5759 5763 5766 5771
5745 5739 5731 5727 5719 5712 5705 5700 5694 5690 5685 5681 5679 5678 5679 5681 5680 5681 5684 5685 5688 5693 5695 5696 5703 5709 5710 5716 5721 5724 5729 5733 5738 5743 5746 5749 5754 5758
5731 5723 5714 5709 5702 5696 5690 5686 5682 5677 5672 5668 5665 5662 5660 5659 5661 5661 5662 5663 5668 5672 5674 5675 5683 5689 5693 5698 5703 5707 5712 5717 5723 5728 5732 5737 5740 5745
5717 5708 5701 5694 5689 5684 5679 5675 5671 5666 5662 5658 5655 5651 5648 5646 5644 5643 5643 5643 5645 5648 5653 5655 5660 5667 5672 5679 5686 5690 5695 5701 5706 5712 5717 5721 5726 5731
5706 5697 5689 5683 5679 5674 5670 5665 5660 5656 5652 5649 5645 5641 5638 5635 5632 5630 5629 5627 5627 5628 5630 5633 5638 5644 5651 5657 5664 5673 5678 5684 5689 5696 5701 5707 5712 5717
5689 5683 5677 5672 5668 5665 5661 5656 5651 5647 5644 5639 5636 5632 5628 5624 5621 5618 5617 5615 5613 5612 5612 5613 5617 5622 5629 5637 5645 5652 5659 5666 5671 5678 5684 5691 5698 5703
5677 5672 5667 5662 5659 5655 5651 5647 5643 5638 5634 5629 5625 5621 5618 5613 5610 5607 5604 5602 5601 5600 5599 5598 5599 5604 5610 5618 5624 5631 5639 5646 5653 5659 5666 5674 5682 5688
5668 5663 5658 5654 5651 5647 5643 5639 5635 5629 5624 5619 5613 5608 5604 5600 5597 5594 5591 5590 5588 5587 5587 5586 5586 5588 5593 5601 5605 5612 5620 5627 5635 5642 5649 5656 5665 5673
5661 5656 5651 5647 5644 5640 5636 5632 5628 5621 5614 5607 5600 5594 5589 5584 5580 5577 5575 5574 5575 5575 5575 5575 5576 5577 5580 5585 5590 5597 5603 5611 5617 5624 5632 5640 5648 5656
5653 5649 5645 5641 5638 5634 5629 5624 5617 5610 5603 5596 5589 5582 5575 5569 5563 5559 5557 5557 5559 5562 5564 5565 5566 5567 5569 5573 5578 5583 5588 5594 5598 5608 5616 5625 5633 5641
5649 5645 5641 5636 5632 5627 5622 5615 5608 5601 5594 5586 5579 5571 5563 5556 5549 5542 5540 5540 5544 5549 5553 5555 5557 5560 5561 5563 5566 5570 5574 5579 5587 5594 5601 5608 5616 5625
5646 5641 5636 5632 5626 5620 5614 5608 5600 5593 5585 5578 5570 5562 5554 5545 5537 5530 5526 5526 5530 5536 5542 5546 5549 5552 5554 5555 5556 5558 5562 5567 5574 5581 5587 5594 5602 5610